#timestamp,LO_Frequency,Hit,StdDev 
1715695215.8,286046998.5,N
1715695235.6,286046998.2,N
1715695255.4,286046998.7,N
1715695275.3,286046998.5,N
1715695295.1,286047001.1,N
1715695315.8,286046998.5,N
1715695335.7,286046998.2,N
1715695355.5,286047001.1,N
1715695375.4,286046998.1,N
1715695395.2,286046998.3,N
1715695415.0,286046998.5,N
1715695415.9,286046998.5,N
1715695435.8,286046998.9,N
1715695455.6,286046998.5,N
1715695475.5,286046998.2,N
1715695495.3,286046998.9,N
1715695515.1,286046998.6,N
1715695535.9,286046999.3,N
1715695555.7,286046998.3,N
1715695575.5,286046998.4,N
1715695595.4,286046998.7,N
1715695615.2,286046999.4,N
1715695635.0,286046999.3,N
1715695635.9,286046999.3,N
1715695655.8,286046999.1,N
1715695675.6,286046999.3,N
1715695695.5,286046998.6,N
1715695715.3,286046999.0,N
1715695735.1,286046998.5,N
1715695755.9,286046999.3,N
1715695775.7,286046998.7,N
1715695795.5,286046999.3,N
1715695815.4,286046998.4,N
1715695835.2,286046998.2,N
1715695855.1,286046998.1,N
1715695856.0,286046998.1,Y
1715695875.8,286047000.0,P
1715695895.6,286046999.9,N
1715695915.5,286047000.4,N
1715695935.3,286046999.9,N
1715695955.1,286047000.1,N
1715695975.9,286047000.4,N
1715695995.7,286047000.7,N
1715696015.6,286047002.4,Y
1715696035.4,286047000.2,P
1715696055.2,286047002.7,P
1715696075.1,286047000.1,N
1715696076.0,286047000.1,N
1715696095.8,286047001.5,N
1715696115.6,286047002.4,N
1715696135.5,286047001.5,N
1715696155.3,286047002.3,N
1715696175.1,286047002.1,N
1715696195.9,286047002.6,N
1715696215.7,286047000.1,N
1715696235.6,286047002.1,N
1715696255.4,286047002.1,N
1715696275.2,286047002.6,N
1715696295.1,286047000.1,N
1715696296.0,286047000.1,N
1715696315.8,286047002.6,N
1715696335.6,286047002.3,N
1715696355.5,286047001.5,N
1715696375.3,286047002.8,N
1715696395.1,286046999.8,N
1715696415.9,286046999.9,N
1715696435.7,286046999.8,N
1715696455.6,286046999.8,N
1715696475.4,286047002.7,N
1715696495.2,286047002.2,N
1715696515.1,286047002.1,N
1715696516.0,286047002.1,N
1715696535.8,286047002.8,N
1715696555.6,286047002.5,N
1715696575.5,286047002.2,N
1715696595.3,286047002.7,N
1715696615.2,286047002.6,N
1715696635.9,286047002.6,N
1715696655.7,286047001.9,N
1715696675.6,286047001.8,N
1715696695.4,286047001.6,N
1715696715.2,286047002.4,N
1715696735.1,286047002.1,N
1715696736.0,286047002.1,N
1715696755.8,286047002.2,N
1715696775.7,286047002.5,N
1715696795.5,286047002.5,N
1715696815.3,286047002.0,N
1715696835.2,286047002.0,N
1715696855.0,286047001.7,N
1715696855.9,286047001.7,N
1715696875.8,286047004.3,Y
1715696895.6,286047002.4,P
1715696915.4,286046999.8,N
1715696935.3,286047000.2,N
1715696955.1,286047002.7,N
1715696975.9,286046999.8,N
1715696995.7,286047000.1,N
1715697015.5,286047000.3,N
1715697035.4,286047002.6,N
1715697055.2,286047002.5,N
1715697075.0,286047001.6,N
1715697075.9,286047001.6,N
1715697095.8,286047001.6,N
1715697115.6,286047002.7,N
1715697135.5,286047001.9,N
1715697155.3,286047001.4,N
1715697175.1,286047002.1,N
1715697195.9,286047001.8,N
1715697215.7,286047001.4,N
1715697235.5,286047002.1,N
1715697255.4,286047002.0,N
1715697275.2,286047002.2,N
1715697295.1,286047004.3,Y
1715697296.0,286047004.3,P
1715697315.8,286047000.2,N
1715697335.6,286047002.3,N
1715697355.5,286047002.7,N
1715697375.3,286047002.4,N
1715697395.2,286046999.9,N
1715697415.9,286047002.8,N
1715697435.7,286047002.8,N
1715697455.6,286047002.5,N
1715697475.4,286047002.5,N
1715697495.2,286047001.9,N
1715697515.1,286047001.6,N
1715697516.0,286047001.6,N
1715697535.8,286047001.5,N
1715697555.7,286047001.4,N
1715697575.5,286047004.3,Y
1715697595.3,286046999.9,P
1715697615.2,286046999.8,N
1715697635.0,286047000.1,N
1715697635.9,286047000.1,N
1715697655.7,286046999.8,N
1715697705.6,286047002.7,E
1715697715.5,286047000.0,N
1715697735.4,286046999.0,P
1715697755.2,286046998.8,N
1715697775.1,286046998.4,Y
1715697776.0,286046998.4,P
1715697795.8,286047000.1,N
1715697815.6,286047000.6,N
1715697835.5,286046999.9,N
1715697855.3,286047001.0,N
1715697875.1,286047000.0,N
1715697895.9,286047001.1,N
1715697915.7,286047000.9,N
1715697935.5,286047000.6,N
1715697955.4,286047000.0,N
1715697975.2,286047000.2,N
1715697995.1,286047000.5,N
1715697996.0,286047000.5,N
1715698015.8,286047000.8,N
1715698035.6,286047000.9,N
1715698055.5,286047000.5,N
1715698075.3,286047000.9,N
1715698095.1,286047000.0,N
1715698115.9,286047000.5,N
1715698135.7,286047000.1,N
1715698155.6,286047000.9,N
1715698175.4,286046999.9,N
1715698195.2,286047000.2,N
1715698215.1,286047001.0,N
1715698216.0,286047001.0,N
1715698235.8,286047000.1,N
1715698255.6,286047000.0,N
1715698275.5,286047000.4,N
1715698295.3,286047000.0,N
1715698315.2,286046999.7,N
1715698335.9,286046999.7,N
1715698355.7,286047000.0,N
1715698375.6,286047000.4,N
1715698395.4,286047000.2,N
1715698415.3,286047002.5,Y
1715698435.1,286047000.3,P
1715698436.0,286047000.3,P
1715698455.8,286047000.7,P
1715698475.7,286047000.6,Y
1715698495.5,286047000.7,P
1715698515.3,286046998.5,P
1715698535.2,286047001.0,N
1715698555.0,286046998.5,N
1715698555.9,286046998.5,N
1715698575.8,286047000.5,N
1715698595.6,286047000.5,N
1715698615.4,286046999.9,N
1715698635.3,286047001.0,N
1715698655.1,286047000.0,N
1715698675.9,286047000.6,N
1715698695.7,286047001.0,N
1715698715.5,286047001.2,N
1715698735.4,286047001.0,N
1715698755.2,286047000.2,N
1715698775.0,286046999.9,N
1715698775.9,286046999.9,N
1715698795.8,286046998.1,N
